$Date,$Time,DM0201B,DM0203B,DM0205B,DM0207B,DM0209B
02/05/99,00:00:01,290,165,-11,330,960
02/05/99,00:05:01,404,160,-11,315,960
02/05/99,00:10:01,320,159,-11,334,960
02/05/99,00:15:01,306,163,-11,327,960
02/05/99,00:20:01,353,163,-11,310,960
02/05/99,00:25:01,373,170,-11,302,960
02/05/99,00:30:01,311,157,-11,291,960
02/05/99,00:35:01,389,161,-11,290,960
02/05/99,00:40:01,393,160,-11,279,960
02/05/99,00:45:01,356,160,-11,288,960
02/05/99,00:50:01,336,157,-11,305,960
02/05/99,00:55:01,349,154,-11,292,960
02/05/99,01:00:01,318,157,-11,260,960
02/05/99,01:05:01,322,171,-11,249,960
02/05/99,01:10:01,396,160,-11,241,960
02/05/99,01:15:01,381,167,-11,274,962
02/05/99,01:20:01,403,156,-11,275,962
02/05/99,01:25:01,349,160,-11,301,962
02/05/99,01:30:01,400,171,-11,314,962
02/05/99,01:35:01,371,161,-11,329,962
02/05/99,01:40:01,344,171,-11,365,962
02/05/99,01:45:01,322,160,-11,412,962
02/05/99,01:50:01,400,152,-11,417,962
02/05/99,01:55:01,451,162,-11,417,962
02/05/99,02:00:01,370,162,-11,437,962
02/05/99,02:05:01,339,162,-11,470,962
02/05/99,02:10:01,408,164,-11,460,962
02/05/99,02:15:01,402,164,-11,446,962
02/05/99,02:20:01,434,164,-11,443,962
02/05/99,02:25:01,378,166,-11,461,962
02/05/99,02:30:01,438,165,-11,455,962
02/05/99,02:35:01,371,165,-11,456,962
02/05/99,02:40:01,379,171,-9,470,962
02/05/99,02:45:01,443,165,-9,473,962
02/05/99,02:50:01,451,165,-9,484,962
02/05/99,02:55:01,439,165,-9,491,962
02/05/99,03:00:01,443,165,-9,502,962
02/05/99,03:05:01,464,165,-9,498,962
02/05/99,03:10:01,437,165,-9,518,962
02/05/99,03:15:01,413,165,-9,304,962
02/05/99,03:20:01,471,165,-9,284,962
02/05/99,03:25:01,421,165,-9,412,962
02/05/99,03:30:01,403,165,-9,256,962
02/05/99,03:35:01,446,165,-9,313,962
02/05/99,03:40:01,425,165,-9,416,962
02/05/99,03:45:01,442,165,-9,589,962
02/05/99,03:50:01,434,167,-9,356,962
02/05/99,03:55:01,438,167,-9,623,962
02/05/99,04:00:01,367,167,-7,449,962
02/05/99,04:05:01,401,167,-7,458,964
02/05/99,04:10:01,433,156,-7,468,964
02/05/99,04:15:01,420,157,-7,482,964
02/05/99,04:20:01,371,156,-7,425,964
02/05/99,04:25:01,382,167,-7,463,964
02/05/99,04:30:01,405,166,-7,465,964
02/05/99,04:35:01,429,166,-7,447,964
02/05/99,04:40:01,421,166,-7,456,964
02/05/99,04:45:01,432,166,-7,452,964
02/05/99,04:50:01,385,166,-7,438,964
02/05/99,04:55:01,431,166,-7,419,964
02/05/99,05:00:01,421,166,-7,411,964
02/05/99,05:05:01,414,166,-7,404,964
02/05/99,05:10:01,400,166,-7,404,964
02/05/99,05:15:01,392,166,-7,377,964
02/05/99,05:20:01,448,171,-7,365,964
02/05/99,05:25:01,426,171,-7,373,964
02/05/99,05:30:01,360,171,-7,373,964
02/05/99,05:35:01,451,159,-7,374,964
02/05/99,05:40:01,452,164,-7,367,964
02/05/99,05:45:01,437,164,-7,367,964
02/05/99,05:50:01,442,164,-7,367,964
02/05/99,05:55:01,404,164,-7,373,964
02/05/99,06:00:01,367,174,-7,369,964
02/05/99,06:05:01,471,174,-7,380,964
02/05/99,06:10:01,447,168,-7,385,964
02/05/99,06:15:01,458,168,-7,384,964
02/05/99,06:20:01,414,168,-7,371,966
02/05/99,06:25:01,382,168,-7,355,966
02/05/99,06:30:01,369,168,-7,335,966
02/05/99,06:35:01,416,167,-7,326,966
02/05/99,06:40:01,405,167,-7,322,966
02/05/99,06:45:01,406,167,-7,316,966
02/05/99,06:50:01,434,169,-7,314,966
02/05/99,06:55:01,424,169,-7,251,966
02/05/99,07:00:01,372,169,-7,236,966
02/05/99,07:05:01,455,169,-7,292,966
02/05/99,07:10:01,416,169,-7,279,966
02/05/99,07:15:01,386,169,-7,218,966
02/05/99,07:20:01,415,169,-7,287,966
02/05/99,07:25:01,368,159,-7,285,966
02/05/99,07:30:01,356,169,-7,285,966
02/05/99,07:35:01,425,169,-7,277,966
02/05/99,07:40:01,369,167,-7,269,966
02/05/99,07:45:01,430,167,-7,261,966
02/05/99,07:50:01,380,167,-7,251,966
02/05/99,07:55:01,393,168,-7,245,966
02/05/99,08:00:01,417,168,-9,237,966
02/05/99,08:05:01,438,168,-9,229,966
02/05/99,08:10:01,415,168,-9,221,966
02/05/99,08:15:01,425,168,-9,217,966
02/05/99,08:20:01,388,157,-9,211,968
02/05/99,08:25:01,369,166,-9,205,968
02/05/99,08:30:01,360,164,-9,199,968
02/05/99,08:35:01,359,164,-9,193,968
02/05/99,08:40:01,394,164,-9,189,968
02/05/99,08:45:01,410,164,-9,182,968
02/05/99,08:50:01,389,164,-9,178,968
02/05/99,08:55:01,338,164,-9,174,968
02/05/99,09:00:01,404,164,-9,168,968
02/05/99,09:05:01,392,164,-9,164,968
02/05/99,09:10:01,373,161,-9,160,968
02/05/99,09:15:01,390,161,-9,156,968
02/05/99,09:20:01,364,161,-9,143,968
02/05/99,09:25:01,383,161,-9,148,968
02/05/99,09:30:01,401,161,-9,127,968
02/05/99,09:35:01,444,161,-9,112,968
02/05/99,09:40:01,369,161,-9,96,968
02/05/99,09:45:01,333,161,-9,129,968
02/05/99,09:50:01,394,161,-9,127,968
02/05/99,09:55:01,446,161,-9,42,968
02/05/99,10:00:01,403,161,-9,33,968
02/05/99,10:05:01,349,161,-9,82,968
02/05/99,10:10:01,360,161,-9,105,968
02/05/99,10:15:01,425,161,-11,86,968
02/05/99,10:20:01,453,161,-11,86,968
02/05/99,10:25:01,360,161,-11,88,968
02/05/99,10:30:01,415,161,-11,82,970
02/05/99,10:35:01,404,161,-11,74,970
02/05/99,10:40:01,397,171,-11,72,970
02/05/99,10:45:01,463,170,-11,72,970
02/05/99,10:50:01,394,155,-11,72,970
02/05/99,10:55:01,417,168,-11,76,970
02/05/99,11:00:01,505,168,-11,82,970
02/05/99,11:05:01,481,171,-11,84,970
02/05/99,11:10:01,381,158,-11,82,970
02/05/99,11:15:01,474,158,-11,78,970
02/05/99,11:20:01,427,158,-11,71,970
02/05/99,11:25:01,406,158,-11,51,970
02/05/99,11:30:01,405,169,-11,35,970
02/05/99,11:35:01,484,159,-11,25,970
02/05/99,11:40:01,490,159,-13,23,970
02/05/99,11:45:01,403,160,-13,25,970
02/05/99,11:50:01,446,164,-13,33,970
02/05/99,11:55:01,418,165,-13,39,970
02/05/99,12:00:01,440,164,-13,41,970
02/05/99,12:05:01,479,164,-13,47,970
02/05/99,12:10:01,429,164,-13,56,970
02/05/99,12:15:01,373,164,-13,52,970
02/05/99,12:20:01,377,164,-13,46,970
02/05/99,12:25:01,409,164,-13,45,970
02/05/99,12:30:01,378,164,-13,30,970
02/05/99,12:35:01,386,164,-13,36,970
02/05/99,12:40:01,371,164,-13,38,970
02/05/99,12:45:01,354,164,-13,39,970
02/05/99,12:50:01,343,164,-13,38,970
02/05/99,12:55:01,361,164,-13,35,972
02/05/99,13:00:01,354,164,-13,33,972
02/05/99,13:05:01,343,164,-13,38,972
02/05/99,13:10:01,333,164,-13,38,972
02/05/99,13:15:01,371,164,-13,40,972
02/05/99,13:20:01,340,164,-13,49,972
02/05/99,13:25:01,344,164,-13,49,972
02/05/99,13:30:01,338,164,-13,49,972
02/05/99,13:35:01,308,154,-13,49,972
02/05/99,13:40:01,362,164,-13,49,972
02/05/99,13:45:01,331,164,-13,51,972
02/05/99,13:50:01,380,164,-13,51,972
02/05/99,13:55:01,335,153,-13,53,972
02/05/99,14:00:01,359,165,-13,53,972
02/05/99,14:05:01,281,165,-13,55,972
02/05/99,14:10:01,326,165,-13,55,972
02/05/99,14:15:01,292,156,-13,57,972
02/05/99,14:20:01,310,156,-13,59,972
02/05/99,14:25:01,321,166,-13,61,972
02/05/99,14:30:01,261,165,-13,61,972
02/05/99,14:35:01,314,163,-13,65,972
02/05/99,14:40:01,287,155,-13,65,972
02/05/99,14:45:01,294,155,-13,67,972
02/05/99,14:50:01,293,158,-13,71,972
02/05/99,14:55:01,268,155,-13,71,972
02/05/99,15:00:01,285,166,-13,75,972
02/05/99,15:05:01,276,166,-13,77,972
02/05/99,15:10:01,365,172,-13,79,972
02/05/99,15:15:01,324,172,-13,54,972
02/05/99,15:20:01,309,161,-13,44,972
02/05/99,15:25:01,325,171,-13,67,972
02/05/99,15:30:01,299,171,-13,92,972
02/05/99,15:35:01,348,171,-13,94,974
02/05/99,15:40:01,289,168,-13,98,974
02/05/99,15:45:01,261,169,-13,102,974
02/05/99,15:50:01,251,159,-13,102,974
02/05/99,15:55:01,210,159,-13,94,974
02/05/99,16:00:01,142,145,-13,106,974
02/05/99,16:05:01,150,143,-13,118,974
02/05/99,16:10:01,184,164,-13,124,974
02/05/99,16:15:01,230,154,-13,120,974
02/05/99,16:20:01,176,138,-13,119,974
02/05/99,16:25:01,179,153,-13,75,974
02/05/99,16:30:01,239,155,-13,77,974
02/05/99,16:35:01,188,167,-13,107,974
02/05/99,16:40:01,257,166,-13,143,974
02/05/99,16:45:01,187,164,-13,145,974
02/05/99,16:50:01,188,163,-13,145,974
02/05/99,16:55:01,172,163,-13,151,974
02/05/99,17:00:01,162,170,-13,147,974
02/05/99,17:05:01,178,171,-13,155,974
02/05/99,17:10:01,146,157,-13,146,974
02/05/99,17:15:01,128,154,-13,159,974
02/05/99,17:20:01,162,163,-13,165,974
02/05/99,17:25:01,174,173,-13,168,976
02/05/99,17:30:01,170,173,-13,130,976
02/05/99,17:35:01,197,167,-13,168,976
02/05/99,17:40:01,147,167,-13,179,976
02/05/99,17:45:01,150,157,-13,181,976
02/05/99,17:50:01,108,169,-13,185,976
02/05/99,17:55:01,157,182,-13,187,976
02/05/99,18:00:01,144,182,-13,191,976
02/05/99,18:05:01,123,173,-13,195,976
02/05/99,18:10:01,134,173,-13,199,976
02/05/99,18:15:01,100,163,-13,203,976
02/05/99,18:20:01,59,162,-13,205,976
02/05/99,18:25:01,68,147,-13,209,976
02/05/99,18:30:01,44,145,-13,211,976
02/05/99,18:35:01,81,188,-13,215,976
02/05/99,18:40:01,104,169,-13,219,976
02/05/99,18:45:01,90,160,-13,223,976
02/05/99,18:50:01,86,184,-13,225,976
02/05/99,18:55:01,76,176,-13,229,976
02/05/99,19:00:01,80,179,-13,233,976
02/05/99,19:05:01,79,169,-13,235,976
02/05/99,19:10:01,77,195,-13,237,976
02/05/99,19:15:01,67,185,-13,241,976
02/05/99,19:20:01,48,173,-13,245,976
02/05/99,19:25:01,63,163,-13,249,976
02/05/99,19:30:01,73,142,-13,253,976
02/05/99,19:35:01,42,163,-13,255,976
02/05/99,19:40:01,33,146,-13,258,976
02/05/99,19:45:01,17,149,-13,262,976
02/05/99,19:50:01,13,181,-13,263,976
02/05/99,19:55:01,4,212,-13,263,976
02/05/99,20:00:01,9,212,-13,265,976
02/05/99,20:05:01,9,35,-13,269,976
02/05/99,20:10:01,4,74,-13,272,976
02/05/99,20:15:01,15,193,-13,275,976
02/05/99,20:20:01,3,27,-13,278,976
02/05/99,20:25:01,17,68,-13,281,976
02/05/99,20:30:01,10,92,-13,283,976
02/05/99,20:35:01,16,143,-13,290,976
02/05/99,20:40:01,12,150,-13,293,976
02/05/99,20:45:01,0,152,-13,297,976
02/05/99,20:50:01,0,94,-13,299,976
02/05/99,20:55:01,53,157,-13,308,976
02/05/99,21:00:01,29,162,-13,312,976
02/05/99,21:05:01,51,169,-11,316,976
02/05/99,21:10:01,22,121,-11,321,976
02/05/99,21:15:01,27,179,-11,322,976
02/05/99,21:20:01,5,139,-11,325,976
02/05/99,21:25:01,11,145,-11,328,976
02/05/99,21:30:01,38,161,-11,331,976
02/05/99,21:35:01,7,162,-11,333,976
02/05/99,21:40:01,19,167,-11,339,976
02/05/99,21:45:01,19,182,-11,343,976
02/05/99,21:50:01,17,173,-11,349,976
02/05/99,21:55:01,3,188,-11,351,976
02/05/99,22:00:01,18,341,-11,357,976
02/05/99,22:05:01,22,261,-11,363,976
02/05/99,22:10:01,31,316,-11,367,976
02/05/99,22:15:01,12,281,-11,373,976
02/05/99,22:20:01,3,305,-11,378,976
02/05/99,22:25:01,23,360,-11,380,976
02/05/99,22:30:01,11,354,-11,385,976
02/05/99,22:35:01,24,11,-11,389,976
02/05/99,22:40:01,7,310,-11,397,976
02/05/99,22:45:01,46,279,-11,403,976
02/05/99,22:50:01,56,308,-11,407,976
02/05/99,22:55:01,12,263,-11,411,976
02/05/99,23:00:01,52,281,-11,415,976
02/05/99,23:05:01,16,273,-11,419,976
02/05/99,23:10:01,0,350,-11,421,976
02/05/99,23:15:01,37,287,-11,430,976
02/05/99,23:20:01,29,352,-11,430,976
02/05/99,23:25:01,20,342,-11,434,976
02/05/99,23:30:01,35,308,-11,439,976
02/05/99,23:35:01,59,357,-11,441,976
02/05/99,23:40:01,34,19,-11,445,976
02/05/99,23:45:01,61,351,-11,449,976
02/05/99,23:50:01,30,10,-11,451,976
02/05/99,23:55:01,44,25,-11,455,976
02/06/99,00:00:01,9,40,-11,458,976
